Temp
18 18 18 18 18 18 18 19 19 19 19 19 19 19 19 19 18 18 18 18 18 18 18 18 19 19 19 19 19 18 18 18 18 17 17 17 17 17 17 17 17 17 17
18 18 18 18 18 18 19 19 19 19 19 19 19 19 19 18 18 18 18 18 18 18 18 18 18 19 19 18 18 18 17 18 18 18 17 17 17 17 17 17 18 17 17
19 18 18 18 18 19 19 18 18 18 19 18 18 18 18 18 18 18 18 18 18 18 18 18 19 19 18 18 17 17 17 16 16 18 18 18 18 18 17 17 17 17 17
19 19 19 18 19 18 18 18 18 18 18 18 18 17 17 18 18 18 18 18 18 18 18 18 19 18 18 17 17 17 16 16 16 16 18 18 18 17 17 17 17 17 17
19 19 19 19 19 19 18 18 18 18 18 18 18 18 18 17 18 18 18 18 18 18 18 18 19 18 18 17 17 17 17 17 17 17 18 17 17 17 16 17 17 17 18
19 19 19 19 19 18 19 18 18 18 18 18 17 17 17 17 17 17 18 18 18 18 18 19 19 19 18 17 17 17 18 17 17 18 18 17 17 17 17 17 17 17 18
20 19 19 19 19 19 18 18 18 18 18 18 17 17 17 17 17 18 17 18 18 18 18 19 18 18 18 18 18 18 17 18 18 19 18 18 17 17 17 17 17 18 18
20 19 19 18 19 18 18 18 18 18 18 18 17 17 17 17 17 17 18 18 18 18 18 19 19 18 18 18 18 18 17 19 19 19 18 18 17 17 17 17 17 17 17
21 20 19 19 19 18 19 19 19 18 18 18 18 17 17 17 18 18 18 19 18 19 19 19 19 19 18 18 18 17 17 18 19 19 18 18 18 17 17 17 17 17 17
20 20 19 20 19 19 19 19 19 18 18 18 18 18 18 17 18 19 19 19 19 19 19 19 20 19 19 19 18 18 17 18 19 19 19 18 18 17 18 17 17 16 17
20 20 20 20 19 19 20 19 18 18 18 17 18 17 17 18 18 18 19 19 19 19 19 19 19 19 19 19 18 18 17 18 18 19 19 18 18 18 18 17 18 18 17
19 18 19 19 20 20 19 19 18 18 17 18 19 18 18 18 18 19 19 18 18 19 19 19 19 19 19 19 18 18 18 18 19 19 19 19 18 18 18 17 18 18 18
19 19 19 20 20 20 19 19 19 18 18 18 18 18 18 17 18 19 19 19 19 19 18 19 19 19 19 20 20 18 19 19 20 20 20 19 19 18 18 18 18 18 18
20 20 20 20 20 19 19 19 19 19 19 18 18 18 18 18 19 18 18 18 19 19 19 19 20 19 19 20 19 19 19 19 20 20 20 20 19 19 19 19 18 18 18
21 21 20 20 19 19 19 19 19 19 19 18 18 18 17 19 19 19 18 18 18 19 19 19 19 19 20 20 20 19 19 19 19 19 19 19 19 19 19 19 18 18 19
22 21 20 20 19 20 19 19 19 19 19 19 19 19 18 18 19 19 18 19 19 19 19 19 20 19 20 20 20 20 19 20 20 19 19 19 19 19 19 19 19 20 20
21 21 20 20 19 20 19 20 19 19 19 19 19 19 19 18 18 19 19 18 19 19 19 19 19 19 20 20 20 20 20 20 20 20 19 19 19 19 20 20 20 20 21
21 21 21 20 20 19 19 20 19 19 19 18 18 19 19 19 19 19 19 19 19 19 19 20 19 19 20 20 20 20 20 20 20 19 20 20 19 19 20 20 21 21 21
21 22 21 20 20 19 19 19 19 19 19 19 19 19 18 19 19 19 19 19 19 19 19 19 19 19 20 20 20 20 20 20 20 20 20 20 20 20 20 20 20 21 21
22 21 20 20 20 20 19 19 19 19 19 19 19 19 19 19 19 19 19 19 19 19 20 20 20 20 20 20 20 20 20 20 20 20 20 20 20 20 20 20 20 20 20
22 21 20 20 20 20 19 19 19 19 19 19 19 19 19 19 18 19 19 19 19 19 20 20 20 20 20 20 21 21 21 21 22 21 20 21 21 21 21 21 21 21 20
21 21 20 20 20 20 20 19 19 19 19 19 18 19 19 19 19 19 18 19 20 19 19 20 20 20 20 21 21 21 22 22 22 22 22 21 21 21 21 21 22 22 21
21 21 20 19 19 20 20 19 19 19 19 19 19 19 19 19 19 19 19 19 19 19 19 20 20 20 21 21 21 21 22 22 22 22 22 22 22 22 22 22 22 22 21
21 21 21 20 19 19 20 19 19 19 20 20 19 19 19 19 19 19 19 19 19 19 20 19 20 20 21 21 21 22 22 22 22 22 22 22 22 22 22 22 22 22 22
21 21 21 20 19 19 19 18 19 20 19 19 20 19 19 19 19 19 19 18 19 19 20 20 20 20 21 21 21 21 22 22 22 22 22 23 22 22 22 22 22 22 22
21 21 21 20 19 19 19 19 19 20 20 19 19 19 19 19 19 19 19 18 19 19 20 20 20 20 20 21 21 21 21 22 22 22 23 23 23 23 23 23 23 22 22
Height
1558 1560 1561 1562 1563 1566 1566 1566 1567 1566 1566 1567 1567 1567 1568 1569 1570 1572 1572 1573 1574 1575 1575 1575 1574 1574 1574 1575 1575 1576 1578 1579 1580 1580 1580 1580 1581 1582 1583 1583 1583 1583 1583
1557 1560 1562 1564 1565 1566 1567 1567 1568 1568 1567 1567 1567 1568 1569 1570 1571 1573 1574 1574 1575 1576 1576 1576 1577 1578 1578 1578 1579 1579 1580 1582 1584 1584 1583 1583 1584 1585 1586 1586 1586 1586 1585
1558 1561 1563 1565 1566 1567 1568 1569 1569 1569 1569 1569 1570 1570 1571 1572 1573 1574 1575 1575 1577 1577 1579 1579 1580 1581 1582 1583 1582 1583 1584 1584 1586 1586 1587 1586 1586 1587 1588 1588 1588 1588 1588
1559 1562 1565 1567 1567 1568 1569 1570 1571 1571 1571 1572 1572 1573 1573 1574 1574 1575 1576 1577 1578 1579 1581 1583 1583 1585 1585 1585 1586 1586 1587 1587 1587 1588 1589 1589 1589 1590 1591 1591 1591 1590 1590
1560 1563 1566 1568 1569 1570 1571 1571 1572 1572 1573 1574 1574 1575 1575 1576 1576 1577 1578 1579 1581 1582 1584 1585 1585 1587 1587 1588 1588 1588 1589 1589 1590 1591 1592 1592 1592 1593 1593 1594 1593 1593 1593
1563 1566 1567 1569 1570 1571 1572 1572 1573 1574 1574 1575 1576 1577 1577 1578 1578 1579 1580 1581 1583 1584 1586 1587 1588 1589 1589 1590 1591 1591 1592 1593 1593 1594 1594 1594 1594 1595 1595 1595 1595 1595 1595
1563 1567 1569 1571 1572 1572 1573 1574 1575 1576 1577 1577 1578 1579 1579 1580 1580 1581 1582 1583 1585 1586 1588 1589 1590 1591 1591 1593 1594 1595 1595 1596 1596 1596 1596 1596 1596 1597 1597 1597 1598 1597 1597
1564 1567 1570 1571 1573 1574 1575 1576 1578 1579 1579 1580 1580 1581 1582 1582 1582 1583 1584 1586 1587 1588 1590 1591 1592 1594 1595 1596 1597 1598 1598 1599 1598 1598 1598 1598 1598 1599 1599 1599 1599 1600 1600
1565 1568 1570 1573 1574 1575 1577 1579 1580 1581 1581 1581 1581 1582 1584 1585 1585 1586 1587 1588 1589 1591 1593 1594 1595 1596 1598 1598 1599 1600 1601 1601 1600 1601 1600 1600 1600 1601 1601 1602 1602 1602 1601
1566 1570 1572 1574 1576 1578 1579 1581 1582 1583 1584 1584 1584 1585 1586 1588 1588 1589 1589 1591 1592 1594 1596 1597 1599 1600 1601 1602 1602 1602 1603 1603 1603 1603 1603 1602 1603 1603 1603 1603 1603 1604 1604
1568 1570 1573 1575 1578 1580 1582 1583 1583 1585 1587 1587 1587 1588 1590 1592 1592 1593 1594 1595 1596 1597 1599 1600 1602 1604 1605 1605 1605 1605 1605 1605 1605 1605 1605 1604 1605 1605 1605 1605 1605 1605 1605
1567 1571 1573 1576 1579 1582 1583 1585 1587 1588 1589 1591 1592 1593 1593 1595 1596 1598 1599 1598 1599 1600 1601 1602 1604 1606 1606 1606 1607 1606 1606 1606 1607 1607 1607 1606 1607 1607 1607 1607 1607 1606 1606
1569 1572 1573 1578 1581 1582 1586 1587 1590 1592 1592 1594 1596 1597 1597 1598 1599 1601 1603 1602 1603 1604 1603 1603 1606 1608 1608 1608 1609 1609 1609 1610 1610 1609 1609 1608 1608 1608 1608 1608 1608 1607 1607
1569 1572 1574 1576 1581 1584 1587 1589 1592 1593 1594 1596 1598 1599 1598 1600 1601 1602 1604 1605 1606 1606 1606 1605 1607 1609 1610 1611 1610 1609 1611 1613 1613 1612 1611 1610 1610 1610 1610 1609 1609 1609 1608
1568 1572 1575 1578 1581 1584 1586 1589 1592 1593 1596 1598 1600 1600 1600 1601 1602 1604 1605 1606 1608 1608 1608 1609 1610 1611 1613 1612 1612 1611 1614 1615 1615 1615 1613 1613 1612 1611 1611 1610 1610 1610 1609
1568 1573 1577 1580 1582 1584 1587 1589 1592 1595 1597 1598 1598 1602 1603 1602 1604 1607 1607 1606 1608 1608 1609 1609 1611 1613 1613 1614 1614 1615 1614 1616 1616 1616 1616 1615 1614 1613 1611 1611 1611 1611 1611
1568 1572 1578 1580 1582 1586 1588 1591 1593 1594 1597 1598 1599 1602 1603 1604 1605 1606 1608 1608 1609 1609 1609 1611 1612 1613 1615 1615 1616 1617 1617 1617 1617 1617 1617 1616 1616 1615 1613 1613 1612 1613 1612
1570 1573 1578 1581 1584 1585 1589 1591 1593 1596 1598 1598 1600 1603 1604 1606 1606 1607 1609 1610 1610 1612 1611 1613 1613 1614 1615 1617 1616 1617 1618 1618 1618 1617 1618 1617 1618 1617 1616 1615 1614 1614 1614
1570 1575 1578 1582 1585 1587 1589 1592 1594 1595 1598 1598 1600 1601 1603 1605 1607 1608 1609 1610 1611 1611 1613 1614 1615 1615 1616 1616 1617 1618 1618 1619 1619 1619 1618 1618 1618 1619 1619 1618 1617 1617 1616
1570 1575 1579 1581 1584 1588 1590 1593 1594 1595 1598 1599 1601 1602 1603 1604 1606 1608 1608 1610 1610 1612 1613 1616 1616 1617 1617 1618 1618 1618 1619 1619 1620 1620 1621 1619 1620 1620 1620 1620 1619 1619 1618
1569 1574 1578 1580 1583 1587 1591 1592 1594 1594 1597 1599 1601 1601 1603 1605 1606 1608 1609 1610 1611 1612 1614 1616 1616 1618 1618 1618 1618 1618 1618 1619 1619 1621 1621 1622 1621 1621 1621 1621 1621 1619 1619
1567 1572 1576 1580 1582 1586 1590 1592 1594 1596 1597 1599 1600 1601 1603 1605 1606 1608 1610 1612 1611 1613 1614 1615 1615 1617 1618 1619 1619 1618 1618 1620 1620 1621 1621 1622 1622 1621 1621 1622 1621 1620 1620
1565 1569 1573 1577 1581 1585 1589 1592 1594 1596 1598 1599 1600 1601 1602 1605 1606 1608 1610 1611 1613 1613 1615 1616 1617 1618 1618 1619 1619 1618 1618 1619 1621 1622 1622 1623 1624 1622 1623 1623 1622 1621 1621
1563 1567 1572 1575 1579 1583 1587 1589 1591 1594 1595 1597 1599 1600 1601 1604 1606 1608 1609 1610 1613 1614 1615 1616 1617 1618 1618 1618 1619 1619 1619 1620 1621 1623 1623 1623 1624 1623 1623 1622 1622 1623 1622
1561 1564 1569 1573 1577 1581 1584 1587 1589 1592 1593 1596 1597 1599 1601 1603 1605 1608 1610 1610 1611 1613 1615 1615 1617 1618 1619 1619 1619 1619 1619 1620 1621 1622 1622 1623 1623 1623 1623 1622 1622 1623 1622
1559 1563 1567 1570 1575 1578 1582 1584 1587 1590 1593 1595 1597 1599 1601 1603 1605 1607 1609 1609 1610 1612 1614 1615 1616 1616 1618 1619 1619 1620 1619 1620 1621 1620 1621 1622 1622 1622 1623 1623 1623 1622 1622
Wind_Speed
18 17 18 17 18 16 12 11 10 10 10 10 11 12 13 14 15 15 15 16 17 18 18 20 21 23 24 25 27 28 25 23 23 23 24 25 24 22 20 18 18 19 18
23 20 19 17 16 13 12 11 11 11 12 12 13 13 13 14 14 15 16 16 17 17 19 20 22 23 25 28 30 31 29 26 21 20 22 21 20 17 16 18 19 19 18
24 21 19 15 14 13 12 12 12 12 12 13 13 14 14 14 14 14 16 16 16 18 18 19 21 23 25 26 26 26 27 29 24 20 16 20 20 17 17 18 19 18 19
25 21 18 16 14 13 12 12 12 12 13 12 12 13 14 14 14 15 16 17 17 17 18 19 20 25 26 25 24 22 19 22 14 16 16 19 20 18 18 17 18 17 17
24 22 19 16 14 14 13 12 12 12 12 12 13 13 14 14 15 16 16 17 17 18 17 19 21 24 25 23 24 21 17 21 19 13 14 16 19 17 16 14 15 16 16
23 22 19 16 15 14 13 12 12 12 12 12 12 14 14 15 16 16 16 16 17 19 18 18 22 25 25 24 22 21 18 18 12 9 13 16 17 15 15 16 15 16 15
23 21 19 16 14 14 13 12 12 12 12 13 13 13 14 14 15 16 16 16 17 18 17 19 23 25 23 22 21 21 16 12 13 11 14 16 17 16 15 15 15 15 15
21 21 19 16 14 14 13 12 12 13 14 14 13 12 14 15 15 17 16 17 16 15 15 18 20 21 19 21 20 19 15 11 13 15 16 16 15 14 14 15 15 15 14
21 20 17 15 13 13 12 12 13 15 16 16 15 14 15 16 16 18 18 18 18 18 17 18 20 22 19 20 20 18 14 12 14 12 14 14 15 14 13 13 13 13 13
15 17 17 14 13 13 13 14 17 16 19 21 22 21 18 18 18 19 20 20 20 20 20 22 23 21 19 18 17 15 13 13 14 10 12 14 13 12 12 11 10 11 12
18 19 17 18 16 14 14 19 20 19 18 14 19 22 19 17 20 21 22 23 23 23 24 25 25 24 20 15 13 12 9 11 9 8 8 12 11 11 11 11 11 10 10
22 19 13 12 16 20 20 21 20 18 14 14 16 18 19 15 19 21 23 24 24 24 23 24 21 20 17 14 10 8 10 7 12 7 7 9 9 10 9 9 9 9 9
25 26 19 17 18 18 16 20 20 16 14 15 18 19 15 15 19 21 21 17 17 17 15 18 19 15 8 13 13 10 5 6 15 9 8 8 8 9 8 8 8 9 8
32 22 14 16 17 13 9 9 16 16 14 11 16 15 14 14 17 16 12 9 15 12 15 15 20 13 9 12 11 12 7 7 14 16 12 12 10 9 9 8 8 8 8
29 19 19 18 18 12 12 12 12 12 13 18 12 12 12 13 9 11 11 6 8 12 15 18 11 11 12 10 11 17 9 9 9 14 18 16 13 11 9 8 8 7 7
24 20 20 21 17 16 15 17 17 14 18 13 14 16 16 12 7 12 11 10 6 11 14 15 15 10 8 7 9 11 8 5 8 9 11 14 15 13 10 10 9 8 7
24 20 19 22 21 16 16 13 17 15 14 11 12 16 17 14 9 11 11 10 10 10 14 13 12 12 9 12 11 8 8 4 0 7 9 9 11 14 13 13 12 10 11
22 18 15 16 22 16 15 19 15 12 13 7 10 8 9 13 13 11 8 9 9 9 7 10 15 13 9 10 9 7 8 10 5 4 7 8 8 12 14 17 14 13 12
18 12 9 16 20 14 19 16 10 9 15 13 9 9 8 12 16 11 13 10 8 9 12 9 11 8 7 9 7 5 3 3 5 4 4 6 8 9 12 13 15 14 14
22 18 14 14 11 16 21 14 11 11 10 9 10 9 9 11 13 12 9 12 10 11 11 9 8 7 6 6 5 5 6 4 4 2 2 6 7 10 12 7 10 12 14
23 22 16 20 17 14 19 17 14 12 7 11 8 5 7 8 15 11 13 11 10 9 7 10 10 4 2 5 3 4 5 4 2 3 7 5 4 7 9 6 5 7 9
26 20 25 21 20 15 17 15 11 10 9 9 7 6 7 8 15 12 10 9 2 14 13 12 10 7 7 5 4 2 2 5 6 2 5 4 3 2 5 7 9 8 12
27 22 31 24 22 17 21 16 12 13 12 11 10 7 8 5 15 12 12 9 10 12 12 11 8 5 9 6 6 4 4 5 8 6 6 5 7 3 1 5 11 11 11
28 23 25 29 23 18 24 15 11 15 9 6 8 10 9 5 12 11 14 9 10 8 9 11 7 6 7 3 2 6 6 7 5 7 8 6 8 6 4 3 3 7 9
30 25 21 27 25 22 24 18 14 11 11 9 10 12 10 10 8 5 13 8 10 10 10 11 7 10 6 2 4 1 3 6 5 2 8 9 8 5 3 1 1 3 7
31 26 26 27 27 24 27 23 19 19 18 13 12 12 7 7 9 9 10 11 12 11 16 12 8 10 7 3 3 5 3 6 6 11 8 10 8 8 5 3 0 2 5
Wind_Direction
152 146 133 115 114 112 107 98 88 81 78 75 74 76 83 90 89 97 98 98 98 99 97 98 97 94 98 98 95 92 92 90 92 94 95 94 90 84 82 87 84 84 76
147 143 132 123 118 116 106 96 90 83 78 79 77 81 91 95 93 97 104 101 98 96 98 99 99 98 100 99 96 92 93 89 82 88 97 94 88 83 88 83 81 84 82
146 140 134 127 121 115 108 101 91 86 84 85 83 87 89 98 106 103 101 102 100 98 99 101 97 100 101 101 98 92 92 88 74 77 88 90 92 95 86 83 80 86 84
144 140 134 127 121 114 107 102 98 88 85 86 87 89 89 93 103 104 103 105 104 104 105 102 100 107 103 100 95 89 97 103 81 75 85 92 95 92 85 83 80 84 88
139 140 131 125 121 114 114 102 95 94 90 88 93 95 93 96 101 110 110 107 109 106 100 108 106 112 114 105 92 82 100 102 109 82 85 96 94 90 87 84 86 76 87
134 137 130 125 125 121 112 104 97 95 93 93 100 100 101 99 105 112 111 110 110 110 102 105 108 120 119 107 100 93 89 102 111 87 95 98 96 95 91 90 83 78 86
138 138 131 126 121 117 108 104 100 100 96 99 98 102 102 108 107 112 113 110 112 113 107 102 111 121 116 111 118 105 104 94 89 107 105 102 96 95 90 90 87 81 84
145 143 135 124 117 117 112 105 99 94 96 94 93 101 111 114 112 115 113 110 109 113 110 100 106 121 120 108 108 95 97 70 90 102 99 98 102 97 92 89 84 86 85
145 145 136 128 122 116 107 101 101 100 103 96 96 104 111 112 115 115 113 109 106 105 103 99 103 118 117 106 117 108 97 73 87 93 98 97 99 97 91 89 81 85 82
126 137 127 123 115 109 109 104 106 106 106 104 99 98 107 108 109 114 112 108 102 100 99 96 100 113 118 109 109 107 105 68 69 80 96 97 99 98 92 97 88 85 78
126 116 122 108 101 105 103 110 114 110 111 110 105 98 94 101 106 110 107 105 102 99 99 105 108 107 113 110 114 100 105 77 62 76 91 98 100 97 95 88 83 83 80
149 145 119 110 101 110 99 107 112 109 110 87 102 99 95 104 105 106 107 107 108 106 106 110 114 107 102 99 117 103 130 70 39 61 80 94 99 95 89 89 89 82 75
154 160 136 117 110 109 103 106 108 106 99 96 100 97 102 104 116 108 109 108 101 103 110 116 94 82 111 103 103 132 140 79 44 51 65 75 83 82 81 77 73 71 71
156 156 141 124 128 133 124 124 114 97 116 121 123 123 134 140 133 121 119 109 94 99 109 102 97 74 93 89 74 183 133 70 53 54 60 60 59 61 67 70 71 67 61
157 157 148 141 136 138 154 137 133 110 132 151 137 122 158 127 124 130 124 139 112 111 114 113 104 94 118 114 102 92 133 69 53 50 60 59 56 55 56 60 61 58 54
155 152 140 147 141 144 158 143 140 135 135 143 155 138 139 131 140 118 136 124 99 104 114 118 118 116 109 117 104 120 64 68 48 47 49 50 50 53 57 59 56 56 60
149 149 148 155 153 147 169 153 156 158 148 153 150 156 148 156 151 144 132 122 119 113 121 126 136 129 107 116 117 118 123 129 66 54 39 43 38 42 59 67 65 67 69
151 151 159 179 167 164 148 157 142 162 153 161 158 144 154 158 174 151 146 155 144 143 131 127 148 135 95 134 126 116 99 116 142 63 68 46 44 55 65 67 69 71 74
151 165 161 163 186 177 158 157 154 170 169 176 183 154 142 169 146 150 147 153 163 165 123 133 122 151 139 149 147 142 155 124 103 103 71 47 35 52 50 67 61 71 69
176 157 174 184 171 156 164 159 188 178 196 178 171 181 164 161 176 146 145 173 173 138 145 142 136 133 173 148 174 174 212 241 233 137 113 41 49 62 51 76 69 70 67
177 180 164 175 191 176 179 167 176 174 151 185 178 174 152 165 183 166 161 164 165 156 161 142 128 151 169 95 46 249 211 183 151 251 210 68 46 33 41 43 61 77 76
182 182 180 190 199 194 182 175 195 174 190 191 179 152 142 154 179 172 173 175 154 144 152 164 147 144 117 80 89 111 163 167 178 179 128 143 11 338 42 15 56 80 72
187 191 186 194 198 202 178 184 200 196 207 194 190 189 151 162 170 172 169 157 160 161 166 178 176 162 130 119 78 75 135 121 149 164 168 196 195 184 294 89 70 48 37
194 197 194 203 201 197 176 192 205 186 192 165 164 178 152 164 181 173 178 180 187 168 159 150 151 170 156 145 122 91 108 111 156 161 179 164 176 185 204 218 44 50 33
189 197 205 209 208 195 186 185 197 198 187 210 194 185 172 160 180 189 189 205 199 196 194 163 168 185 184 99 43 220 96 78 109 309 198 176 185 165 131 321 8 22 13
200 209 209 211 212 197 192 192 191 204 211 204 181 166 175 164 168 183 200 226 217 182 185 189 196 201 194 161 130 99 104 90 69 45 205 175 169 144 149 87 87 19 348